Phoenix Deer Valley, AZ

11:16 PM MST on June 28, 2017 (GMT -0700)
Phoenix-Deer Valley Municipal

Weather History for KDVT - October, 2012

Change the Weather History Date:

Saturday, October 13, 2012

  Actual Average Record
Temperature  
Mean Temperature 67 °F -  
Max Temperature 79 °F 85 °F 98 °F (1999)
Min Temperature 55 °F 64 °F 45 °F (2008)
Cooling Degree Days 2    
Growing Degree Days 17 (Base 50)    
Moisture  
Dew Point 42 °F    
Average Humidity 45    
Maximum Humidity 69    
Minimum Humidity 23    
Precipitation  
Precipitation 0.00 in - - ()
Sea Level Pressure  
Sea Level Pressure 30.04 in    
Wind  
Wind Speed 2 mph (North)    
Max Wind Speed 9 mph    
Max Gust Speed -    
Visibility 10 miles    
Events      
Averages and records for this station are not official NWS values.
T = Trace of Precipitation, MM = Missing Value Source: NWS Daily Summary

Daily Weather History Graph

Daily Weather History Graph

Search for Another Location

Airport or City:

Trip Planner

Search our weather history database for the weather conditions in past years. The results will help you decide how hot, cold, wet, or windy it might be!

Date:

Astronomy

Oct. 13, 2012 Rise Set
Actual Time 6:32 AM MST 5:56 PM MST
Civil Twilight 6:06 AM MST 6:21 PM MST
Nautical Twilight 5:38 AM MST 6:50 PM MST
Astronomical Twilight 5:09 AM MST 7:19 PM MST
Moon 4:30 AM MST (10/13) 4:39 PM MST (10/13)
Length of Visible Light 12h 14m
Length of Day
11h 24m
Waning Crescent, 4% of the Moon is Illuminated
Oct 13
Waning Crescent
Oct 15
New
Oct 21
First Quarter
Oct 29
Full
Nov 6
Last Quarter

Hourly Weather History & Observations

Time (MST) Temp. Dew Point Humidity Pressure Visibility Wind Dir Wind Speed Gust Speed Precip Events Conditions
12:53 AM 59.0 °F 46.0 °F 62% 30.04 in 10.0 mi Calm Calm - N/A   Clear
1:53 AM 59.0 °F 45.0 °F 60% 30.04 in 10.0 mi NNE 9.2 mph - N/A   Clear
2:53 AM 57.9 °F 45.0 °F 62% 30.04 in 10.0 mi Calm Calm - N/A   Clear
3:53 AM 57.0 °F 45.0 °F 64% 30.05 in 10.0 mi Calm Calm - N/A   Clear
4:53 AM 55.0 °F 45.0 °F 69% 30.06 in 10.0 mi North 4.6 mph - N/A   Clear
5:53 AM 55.0 °F 44.1 °F 67% 30.07 in 10.0 mi NNE 5.8 mph - N/A   Clear
6:53 AM 55.9 °F 44.1 °F 64% 30.09 in 10.0 mi NNE 4.6 mph - N/A   Clear
7:53 AM 60.1 °F 44.1 °F 55% 30.10 in 10.0 mi North 3.5 mph - N/A   Clear
8:53 AM 63.0 °F 44.1 °F 50% 30.12 in 10.0 mi Calm Calm - N/A   Clear
9:53 AM 66.9 °F 43.0 °F 42% 30.12 in 10.0 mi Calm Calm - N/A   Clear
11:53 AM 73.9 °F 37.9 °F 27% 30.09 in 10.0 mi NNE 4.6 mph - N/A   Clear
12:53 PM 75.0 °F 37.9 °F 26% 30.04 in 10.0 mi Calm Calm - N/A   Clear
1:53 PM 77.0 °F 37.9 °F 24% 30.01 in 10.0 mi Calm Calm - N/A   Clear
2:53 PM 79.0 °F 37.9 °F 23% 29.98 in 10.0 mi NW 5.8 mph - N/A   Clear
3:53 PM 79.0 °F 37.9 °F 23% 29.96 in 10.0 mi Calm Calm - N/A   Clear
5:53 PM 77.0 °F 37.9 °F 24% 29.96 in 10.0 mi SW 6.9 mph - N/A   Clear
6:53 PM 75.0 °F 39.0 °F 27% 29.96 in 10.0 mi Calm Calm - N/A   Clear
7:53 PM 73.0 °F 39.9 °F 30% 29.98 in 10.0 mi WNW 3.5 mph - N/A   Clear
10:53 PM 66.0 °F 43.0 °F 43% 30.00 in 10.0 mi Calm Calm - N/A   Clear
11:53 PM 64.0 °F 44.1 °F 48% - 10.0 mi Calm Calm - N/A   Clear